PAGEOS 1 DEB, 9468

Orbit data source: Space-Track

PAGEOS 1 DEB, 9468 is space debris in LEO originally from a launch on Fri, 24 Jun 1966 UTC launched from the Air Force Western Test Range (AFWTR). Debris objects in space refer to the collection of defunct objects orbiting the Earth. Examples of debris include non-operational satellites, rocket bodies, and fragments generated from explosions, collisions, or faulty payload assembly.

Loading next visibility...
Identifier
9468, 1966-056AH
Orbit
LEO
Country
Flag of USUS
Related business
Manufacturer
Unknown
Mission
Spacecraft
Bus & Motor
Unknown
Mass
Unknown
Launch date (UTC)
1966-06-24 (59 years ago)
Launch vehicle
Unknown
Launch site
Air Force Western Test Range (AFWTR)
Object type
Payload
Rocket body
Debris
Shape & HBR
Unknown shape, 0.2 m
Radar Cross Section
Medium (>0.1 m² and <1 m²)

Expand to show TLE details & history
Last TLE update: 4 months ago

TLE from 4 months ago
0 PAGEOS 1 DEB
1 09468U 66056AH  25173.92499606  .00000615  00000-0  21711+0 0  9996
2 09468  85.1098 158.7406 1437012 288.2186  56.7748  8.06702025 36864
Epoch: 2025-06-22T22:11Z
TLE epoch observation values (Epoch: 2025-06-22T22:11:59.659Z)
Latitude
-0.00004°
Longitude
-85.60062°
Altitude
3,468.543 km
Speed
6.559 km/s
True Right ascension
10h 34m 57s
True Declination
0° 00' 00"
Sunlit
Object was in daylight at epoch
Visualization orbit readout
Latitude
Unknown
Longitude
Unknown
Altitude
Unknown
Speed
Unknown
Apparent Right ascension
Unknown
Apparent Declination
Unknown
Sunlit
N/A
Visualization observer readout
Local Sidereal Time
17:55:38
Azimuth
Unknown
Elevation
Unknown
Doppler factor
Unknown
Orbital elements
Apogee altitude
5,630.261 km
Perigee altitude
2,612.652 km
Semi-major axis
10,499.594 km
Eccentricity
0.1437
Inclination
85.1098°
RAAN
158.7406°
Arg. of periapsis
288.2186°
True anomaly
71.86771°
Mean anomaly
56.7748°
Eccentric anomaly
64.18672°
Mean motion
2.01736 °/min
Orbital period
178.45 mins
BSTAR
0.21711
Loading maneuver chart data...
Computing Atmospheric mass density...

Documentation

Showing up to 5 results
|